Retour au catalogue

NOAA 16 DEB

ActifSSO
NORAD 41197·DEBRIS·🇺🇸 United States

Lancé Sep 21, 2000 depuis Vandenberg Space Force Base

Loading…

Prochains Passages (prochaines 24 heures)

TLE

FraisSource: Space-Track

Époque: Sep 14, 2026, 21:12 UTC

1 41197U 00055DA  26257.88357114  .00005146  00000-0  17423-2 0  9996
2 41197  98.6540 277.1047 0031043 221.6166 138.2657 14.36950147552272

Suivez NOAA 16 DEB en temps réel avec AllMySat

Download on the App Store